User: anonymous   Login
Location: Peebles
(55.6412°N, 3.1714°W)
Time: 02:02:47
(UTC+00:00)
Language:

NOSS 3-2 (C) - Orbit

View from above orbital plane
View from above orbital plane
View from above satellite
View from above satellite

Ground track
Ground track

The orbit data is extracted from the following two-line orbital elements,

1 28097U 03054C   21307.72036894 0.00000071  00000-0  70950-4 0    06
2 28097  63.4081 189.4659 0449343   0.1482 359.7782 13.40781551    00
Epoch (UTC): 03 November 2021 17:17:19
Eccentricity: 0.0449343
inclination: 63.4081°
perigee height: 770 km
apogee height: 1442 km
right ascension of ascending node: 189.4659°
argument of perigee: 0.1482°
revolutions per day: 13.40781551
mean anomaly at epoch: 359.7782°
orbit number at epoch: 0

The dashed part of the orbit path shows where the satellite is in the earth's shadow,  

DLR